Stündliche Wetter Otradnyy

Heute, 14 April, Mittwoch

Zeit Temperatur Niederschläge Wind Luftdruck Luftfeuchtigkeit
00:00 +12°C° 0 mm 3 m/S 751 mmHg 85%
01:00 +11°C° 0 mm 3 m/S 751 mmHg 89%
02:00 +10°C° 0 mm 2 m/S 751 mmHg 92%
03:00 +10°C° 0 mm 2 m/S 751 mmHg 93%
04:00 +10°C° 0 mm 2 m/S 751 mmHg 93%
05:00 +10°C° 0 mm 2 m/S 751 mmHg 93%
06:00 +12°C° 0 mm 2 m/S 751 mmHg 87%
07:00 +13°C° 0 mm 2 m/S 750 mmHg 81%
08:00 +15°C° 0 mm 2 m/S 750 mmHg 74%
09:00 +16°C° 0 mm 3 m/S 750 mmHg 63%
10:00 +17°C° 0 mm 3 m/S 750 mmHg 52%
11:00 +18°C° 0 mm 4 m/S 749 mmHg 41%
12:00 +19°C° 0 mm 4 m/S 749 mmHg 37%
13:00 +20°C° 0 mm 4 m/S 748 mmHg 32%
14:00 +20°C° 0 mm 5 m/S 748 mmHg 28%
15:00 +20°C° 0 mm 5 m/S 748 mmHg 31%
16:00 +19°C° 0 mm 5 m/S 748 mmHg 34%
17:00 +17°C° 0 mm 5 m/S 748 mmHg 37%
18:00 +17°C° 0 mm 4 m/S 748 mmHg 41%
19:00 +16°C° 0 mm 3 m/S 748 mmHg 44%
20:00 +15°C° 0 mm 2 m/S 748 mmHg 47%
21:00 +14°C° 0 mm 2 m/S 747 mmHg 48%
22:00 +14°C° 0 mm 2 m/S 747 mmHg 50%
23:00 +13°C° 0 mm 2 m/S 747 mmHg 51%

Morgen, 15 April, Donnerstag

Zeit Temperatur Niederschläge Wind Luftdruck Luftfeuchtigkeit
00:00 +12°C° 0 mm 3 m/S 747 mmHg 51%
01:00 +12°C° 0 mm 3 m/S 746 mmHg 52%
02:00 +12°C° 0 mm 3 m/S 746 mmHg 53%
03:00 +12°C° 0 mm 3 m/S 746 mmHg 55%
04:00 +12°C° 0 mm 4 m/S 746 mmHg 58%
05:00 +11°C° 0 mm 4 m/S 746 mmHg 61%
06:00 +12°C° 0 mm 4 m/S 746 mmHg 60%
07:00 +13°C° 0 mm 4 m/S 746 mmHg 59%
08:00 +14°C° 0 mm 4 m/S 746 mmHg 58%
09:00 +15°C° 0 mm 4 m/S 746 mmHg 55%
10:00 +16°C° 0 mm 5 m/S 746 mmHg 51%
11:00 +17°C° 0 mm 5 m/S 746 mmHg 48%
12:00 +18°C° 0.2 mm 4 m/S 746 mmHg 48%
13:00 +18°C° 0.2 mm 4 m/S 746 mmHg 48%
14:00 +18°C° 0.2 mm 4 m/S 745 mmHg 48%
15:00 +18°C° 0 mm 3 m/S 745 mmHg 48%
16:00 +17°C° 0 mm 3 m/S 745 mmHg 47%
17:00 +17°C° 0 mm 3 m/S 745 mmHg 47%
18:00 +16°C° 0 mm 3 m/S 746 mmHg 51%
19:00 +15°C° 0 mm 2 m/S 746 mmHg 56%
20:00 +14°C° 0 mm 2 m/S 746 mmHg 61%
21:00 +14°C° 0 mm 2 m/S 746 mmHg 63%
22:00 +13°C° 0 mm 2 m/S 746 mmHg 66%
23:00 +13°C° 0 mm 2 m/S 746 mmHg 68%

übermorgen, 16 April, Freitag

Zeit Temperatur Niederschläge Wind Luftdruck Luftfeuchtigkeit
00:00 +12°C° 0 mm 2 m/S 746 mmHg 70%
01:00 +12°C° 0 mm 1 m/S 746 mmHg 72%
02:00 +11°C° 0 mm 1 m/S 746 mmHg 74%
03:00 +11°C° 0 mm 1 m/S 747 mmHg 75%
04:00 +10°C° 0 mm 2 m/S 747 mmHg 76%
05:00 +10°C° 0 mm 2 m/S 747 mmHg 77%
06:00 +11°C° 0.2 mm 3 m/S 747 mmHg 77%
07:00 +11°C° 0.2 mm 3 m/S 747 mmHg 76%
08:00 +12°C° 0.2 mm 4 m/S 747 mmHg 76%
09:00 +13°C° 0.3 mm 4 m/S 747 mmHg 69%
10:00 +14°C° 0.3 mm 5 m/S 747 mmHg 63%
11:00 +15°C° 0.3 mm 5 m/S 747 mmHg 56%
12:00 +16°C° 0.3 mm 5 m/S 747 mmHg 52%
13:00 +17°C° 0.3 mm 4 m/S 748 mmHg 48%
14:00 +18°C° 0.3 mm 4 m/S 748 mmHg 43%
15:00 +17°C° 0.1 mm 4 m/S 748 mmHg 47%
16:00 +16°C° 0.1 mm 3 m/S 748 mmHg 52%
17:00 +14°C° 0.1 mm 3 m/S 748 mmHg 56%
18:00 +15°C° 0 mm 2 m/S 748 mmHg 59%
19:00 +14°C° 0 mm 2 m/S 748 mmHg 63%
20:00 +13°C° 0 mm 1 m/S 749 mmHg 67%
21:00 +12°C° 0 mm 1 m/S 749 mmHg 71%
22:00 +12°C° 0 mm 2 m/S 749 mmHg 76%
23:00 +12°C° 0 mm 2 m/S 749 mmHg 80%

17 April, Samstag

Zeit Temperatur Niederschläge Wind Luftdruck Luftfeuchtigkeit
00:00 +10°C° 0.1 mm 2 m/S 749 mmHg 83%
01:00 +10°C° 0.1 mm 2 m/S 749 mmHg 87%
02:00 +9°C° 0.1 mm 3 m/S 749 mmHg 90%
03:00 +9°C° 0.1 mm 3 m/S 749 mmHg 92%
04:00 +9°C° 0.1 mm 3 m/S 749 mmHg 93%
05:00 +8°C° 0.1 mm 4 m/S 749 mmHg 95%
06:00 +10°C° 0.1 mm 4 m/S 749 mmHg 91%
07:00 +9°C° 0.1 mm 5 m/S 749 mmHg 87%
08:00 +10°C° 0.1 mm 6 m/S 749 mmHg 83%
09:00 +11°C° 0 mm 6 m/S 749 mmHg 76%
10:00 +14°C° 0 mm 7 m/S 749 mmHg 69%
11:00 +15°C° 0 mm 8 m/S 748 mmHg 61%
12:00 +14°C° 0.5 mm 7 m/S 749 mmHg 66%
13:00 +14°C° 0.5 mm 7 m/S 749 mmHg 71%
14:00 +13°C° 0.5 mm 6 m/S 749 mmHg 75%
15:00 +12°C° 0.6 mm 5 m/S 749 mmHg 78%
16:00 +11°C° 0.6 mm 4 m/S 750 mmHg 80%
17:00 +10°C° 0.6 mm 3 m/S 750 mmHg 83%
18:00 +9°C° 0.7 mm 3 m/S 750 mmHg 84%
19:00 +9°C° 0.7 mm 3 m/S 750 mmHg 86%
20:00 +9°C° 0.7 mm 3 m/S 751 mmHg 87%
21:00 +9°C° 0.3 mm 3 m/S 751 mmHg 87%
22:00 +9°C° 0.3 mm 2 m/S 751 mmHg 87%
23:00 +8°C° 0.3 mm 2 m/S 751 mmHg 87%

18 April, Sonntag

Zeit Temperatur Niederschläge Wind Luftdruck Luftfeuchtigkeit
00:00 +8°C° 0 mm 2 m/S 751 mmHg 87%
01:00 +8°C° 0 mm 2 m/S 751 mmHg 88%
02:00 +8°C° 0 mm 2 m/S 752 mmHg 88%
03:00 +7°C° 0 mm 2 m/S 752 mmHg 89%
04:00 +7°C° 0 mm 2 m/S 752 mmHg 90%
05:00 +7°C° 0 mm 2 m/S 752 mmHg 91%
06:00 +8°C° 0.1 mm 2 m/S 752 mmHg 87%
07:00 +9°C° 0.1 mm 2 m/S 752 mmHg 83%
08:00 +10°C° 0.1 mm 2 m/S 752 mmHg 79%
09:00 +10°C° 0.2 mm 3 m/S 752 mmHg 76%
10:00 +11°C° 0.2 mm 4 m/S 753 mmHg 73%
11:00 +10°C° 0.2 mm 5 m/S 753 mmHg 70%
12:00 +9°C° 0.5 mm 5 m/S 753 mmHg 74%
13:00 +9°C° 0.5 mm 5 m/S 753 mmHg 78%
14:00 +8°C° 0.5 mm 6 m/S 753 mmHg 82%
15:00 +8°C° 0 mm 5 m/S 753 mmHg 81%
16:00 +8°C° 0 mm 5 m/S 753 mmHg 80%
17:00 +8°C° 0 mm 4 m/S 754 mmHg 79%
18:00 +8°C° 0 mm 4 m/S 754 mmHg 77%
19:00 +9°C° 0 mm 3 m/S 754 mmHg 76%
20:00 +9°C° 0 mm 3 m/S 754 mmHg 75%
21:00 +8°C° 0 mm 3 m/S 754 mmHg 77%
22:00 +8°C° 0 mm 3 m/S 754 mmHg 80%
23:00 +7°C° 0 mm 3 m/S 754 mmHg 83%

19 April, Montag

Zeit Temperatur Niederschläge Wind Luftdruck Luftfeuchtigkeit
00:00 +7°C° 0 mm 2 m/S 754 mmHg 84%
01:00 +6°C° 0 mm 2 m/S 754 mmHg 86%
02:00 +6°C° 0 mm 2 m/S 754 mmHg 88%
03:00 +6°C° 0 mm 2 m/S 754 mmHg 88%
04:00 +5°C° 0 mm 3 m/S 754 mmHg 88%
05:00 +4°C° 0 mm 3 m/S 754 mmHg 89%
06:00 +5°C° 0 mm 4 m/S 755 mmHg 86%
07:00 +6°C° 0 mm 4 m/S 755 mmHg 83%
08:00 +7°C° 0 mm 5 m/S 755 mmHg 80%
09:00 +8°C° 0 mm 5 m/S 755 mmHg 72%
10:00 +9°C° 0 mm 5 m/S 755 mmHg 65%
11:00 +11°C° 0 mm 6 m/S 755 mmHg 58%
12:00 +12°C° 0 mm 5 m/S 755 mmHg 57%
13:00 +12°C° 0 mm 5 m/S 755 mmHg 57%
14:00 +12°C° 0 mm 5 m/S 755 mmHg 56%
15:00 +12°C° 0 mm 5 m/S 755 mmHg 58%
16:00 +10°C° 0 mm 5 m/S 755 mmHg 60%
17:00 +10°C° 0 mm 5 m/S 755 mmHg 62%
18:00 +9°C° 0 mm 5 m/S 756 mmHg 65%
19:00 +8°C° 0 mm 4 m/S 756 mmHg 68%
20:00 +8°C° 0 mm 4 m/S 756 mmHg 70%
21:00 +7°C° 0 mm 4 m/S 756 mmHg 72%
22:00 +6°C° 0 mm 4 m/S 756 mmHg 74%
23:00 +6°C° 0 mm 4 m/S 756 mmHg 76%
Mehr zeigen

Wir brauchen deine Erlaubnis

Meteoprog und unser Service Anbieter werden persönliche Daten aufbewahren, so wie Cookies, Geräte Bezeichnung oder ähnliche Technologien von deinem Gerät und Prozess, so wie Persönliche Daten Inhalte und Werbungen, genauso wie social Media und den Verkehr zu analysieren.

  • Aufbewahrung und/oder Zugang zu deiner Geräte Informationen.

    Cookies, Geräte Bezeichnung oder andere Informationen, können aufbewahrt oder Zugang zu deinem Gerät erhalten, für den Grund, der oben angegeben wird.

  • Personalisierte Werbung und Inhalte, Messungen, Einblick in das Publikum und Produkt Entwicklung.

    Werbungen und Inhalte können personalisiert werden, basierend auf ein Profil. Mehr Daten können besser personalisierte Werbungen und Inhalte hinzufügen. Werbung und Inhalte können gezeigt und gemessen werden. Einblicke über das Publikum, welche die Werbung gesehen haben und den Inhalt, können abgeleitet werden. So wie Daten können genutzt werden, um es zu verbessern oder die Benutzer Erfahrung zu verbessern das System und die Software.

Wenn du “Ich stimme zu” klickst, erlaubst du uns, die Cookies zu benutzen die Geräte Bezeichnung, den Web oder ähnliche Technologien zu benutzen. Deine Settings, können in deinem Gerät bei deinem Browser geändert werden.

Für den bestimmten Zweck, berechtigten Interessen beruhen darauf, mehr als auf den Inhalt. Du kannst mehr darüber in unseren Privaten und Cookie Politik lesen.